Погода Тарко-Сале

Хотите узнать прогноз погоды Тарко-Сале? Тогда Вам сюда: Погода Тарко-Сале

Поиск расширенной информации на нашем сайте:

Полезная информация:

Новости сайта



02.01.2020
Опубликован Долгосрочный прогноз погоды по городам России и ближнего зарубежья на январь 2020 года.
Карты: Прогноз на январь и февраль 2020 года, Сравнение прогнозируемой аномалии приземной температуры воздуха на январь 2020 года по разным моделям.




Погода Тарко-Сале - сегодня

Время (UTC), дата Ветер
(°,м/с) 
Видим.   Явления Облачность Т
(°С)
Тd
(°С)
f(%) Тe
(°С)
Pmin
(гПа)
dP
(гПа)
Po
(мм)
O2
(г/м3)
Тmin Tmax R s Состояние
почвы
09 04.06.20 320 (СЗ) 5-11{12}  10 км  пыльный позёмок  3/0 верхняя 
[Ci fib]
+14.4 +2.3 44 +14  1015.4  0.1  759  290           
12 04.06.20 340 (С) 4-12{12}  10 км  пыльный позёмок  8/0 верхняя 
[Ci fib]
+14.8 +0.4 37 +15  1015.6  0.3  759  290           
15 04.06.20 340 (С) 3{12}  10 км  пыльный позёмок  3/0 верхняя 
[Ci fib]
+13.9 +0.9 41 +14  1016  0.4  760  291    +14.9       
18 04.06.20 330 (СЗ) 2{12}  10 км    3/0 верхняя 
[Ci fib]
+10.6 +4.6 66 +11  1016.9  0.8  760  294           
21 04.06.20 340 (С) 10 км    3/0 верхняя 
[Ci fib]
+8.4 +6.1 85 +8  1017.3  0.4  761  296           
00 05.06.20 340 (С) 10 км    ясно 
+10.7 +7.4 80 +11  1017.9  0.6  761  294           
03 05.06.20 330 (СЗ) 10 км    ясно 
+14.9 +7.6 62 +15  1018  0.2  761  290  +8.3         
06 05.06.20 340 (С) 10 км    3/3 300 м 
[Cu hum]
+18.5 +8.6 52 +19  1017.8  -0.2  761  286           
09 05.06.20 340 (С) 4{10}  10 км    3/0 средняя, верхняя 
[Ac cast|Ci fib]
+20.8 +6 38 +21  1017.5  -0.3  761  284           
12 05.06.20 320 (СЗ) 10 км    3/3 600 м верхняя 
[Cu med, cong|Ci fib]
+21.8 +6.1 36 +22  1017.2  -0.2  761  283           
15 05.06.20 320 (СЗ) 10 км    3/0 средняя, верхняя 
[Ac As|Ci fib]
+20.4 +7.1 42 +20  1017.1  -0.2  761  284    +22.1       
18 05.06.20 300 (СЗ) 10 км    8/0 средняя 
[Ac As]
+15.6 +8.7 63 +17  1017.5  0.4  761  289           
21 05.06.20 270 (З) 10 км    1/0 средняя 
[Ac As]
+11 +8.6 85 +12  1017.4  -0.2  761  293           
00 06.06.20 280 (З) 10 км    ясно 
+14.9 +9 68 +16  1017.3  761  289           
03 06.06.20 310 (СЗ) 10 км    9/0 средняя 
[Ac cast]
+16.2 +8.8 61 +17  1017.9  0.6  761  288  +10.8        сухая 
06 06.06.20 340 (С) 10 км    8/3 600 м средняя, верхняя 
[Cu med, cong|Ac trans|Cc]
+16.7 +9.9 64 +18  1018.2  0.3  761  287           
09 06.06.20 350 (С) 10 км  пыльный позёмок  ясно 
+17.7 +5.7 45 +18  1018.5  0.3  762  287           
12 06.06.20 340 (С) 10 км  пыльный позёмок  3/0 верхняя 
[Ci fib]
+16.7 -0.8 30 +17  1019.5  0.8  762  289           
15 06.06.20 330 (СЗ) 10 км    ясно 
+14.2 +1.7 43 +14  1019.9  0.5  763  292    +18.6       
18 06.06.20 350 (С) 10 км    ясно 
+9.6 +4.2 69 +10  1021  763  297           
21 06.06.20 350 (С) 10 км    1/0 верхняя 
[Ci fib]
+6.3 +3.9 85 +7  1021.6  0.6  764  300           
00 07.06.20 050 (СВ) 10 км    3/0 верхняя 
[Ci fib]
+7.6 +1.9 67 +8  1022.6  765  299           
03 07.06.20 350 (С) 10 км    4/0 средняя, верхняя 
[Ac trans|Ci fib]
+9.8 +1.1 55 +11  1022.2  -0.4  764  297  +6.3        сухая 
06 07.06.20 020 (С) 10 км    9/0 средняя, верхняя 
[Ac trans|Ci fib]
+13.1 +0.7 43 +14  1021.1  -1.1  763  293           
09 07.06.20 030 (СВ) 10 км    10/0 средняя 
[Ac und]
+13.8 +1.4 43 +14  1020.4  -0.7  763  292           
Время (UTC), дата Ветер
(°,м/с) 
Видим.   Явления Облачность Т
(°С)
Тd
(°С)
f(%) Тe
(°С)
Pmin
(гПа)
dP
(гПа)
Po
(мм)
O2
(г/м3)
Тmin Tmax R s Состояние
почвы

Для получения пояснительной информации подведите курсор к названию столбца.

ПОГОДА Тарко-Сале - архив

Всё, что Вы хотите узнать о погоде Тарко-Сале - удобно и подробно!

Выберите нужную дату (начиная с 1 января 2019* года) и нажмите кнопку "Найти".
Будут отображены архивные сводки погоды по пункту Тарко-Сале, начиная с указанной даты.


Отображать данные в формате CSV (для использования в таблицах Excel)


Внимание! Наш архив погоды предназначен исключительно для личного некоммерческого использования в познавательных целях. Если Вам необходимы официальные справки о состоянии погоды (для производственных, юридических, коммерческих и т.п. целей), обращайтесь в органы Росгидромета.

*Примечание: данная дата относится к архиву по метеостанциям СССР (Россия, СНГ, Балтия).
Архив по метеостанциям Зарубежной Европы и Азии (кроме Китая) хранится 10 дней, по другим регионам земного шара (Китай, Африка, Америка, Австралия, Океания) - 1 день.

Тарко-Сале - район местоположения метеостанции


Название, широта, долгота, высота метеостанции:
Тарко-Сале 64.9°ш. 77.8°д. 27 м над ур. моря [Российская Федерация]

Дополнительная информация

В oтличие oт бoльшинства пoгoдных сайтoв мы публикуем пoдрoбную метеoинфoрмацию в детальнoм прoфессиoнальнoм фoрмате.

Характеристики температуры и влажнoсти вoздуха измеряются на высoте 2 м в тени вдали oт зданий и деревьев.
Скoрoсть ветра измеряется на высoте 10 м (на урoвне рoста челoвека скoрoсть ветра ниже в 1.5-2 раза). Если метеoстанция нахoдится в гoрoде или в лесу, тo скoрoсть ветра занижена на 2-4 м/с пo сравнению с oткрытым местoм. Скoрoсть ветра над акватoриями крупных рек и oзёр, а также на вершинах хoлмoв на 2-5 м/с выше, чем в oбычных услoвиях.
Атмoсфернoе давление в разных тoчках местнoсти мoжет значительнo oтличаться oт давления на метеoстанции, в зависимoсти oт услoвий рельефа (при пoдъёме на 10 м давление пoнижается примернo на 1 мм рт.ст.).